[[{"header":{"parameterUnit":"m.s-1","parameterCategory":1,"la1":30.2991,"la2":30.254,"lo1":-89.0895,"lo2":-89.0444,"dy":0.0017,"dx":0.0017,"nx":28,"ny":28,"refTime":"2023-10-07T09:00:00:Z","depth":0,"parameterNumber":2,"parameterNumberName":"U-component_of_WINDS"},"data":[0,0,0,0,0,0,0,0,0,0,0,0,0,0,0,0,0,0,0,0,0,0,0,0,0,0,0,0,0,0,0,0,0,0,0,0,0,0,0,0,0,0,0,0,0,0,0,0,0,0,0,0,0,0,0,0,0,0,-1.8715,-1.8715,0,-1.8754,-1.8754,-1.8755,-1.8686,-1.8684,-1.8682,-1.868,-1.872,-1.8723,-1.8726,0,0,0,0,0,0,0,0,0,0,0,0,0,-1.8581,-1.8583,-1.8715,-1.8715,-1.8716,-1.8754,-1.8754,-1.8755,-1.8687,-1.8684,-1.8681,-1.8678,-1.8719,-1.8722,-1.8726,0,0,0,0,0,0,0,0,0,0,0,0,0,-1.8631,-1.8584,-1.8715,-1.8686,-1.8684,-1.8754,-1.8754,-1.8755,-1.8687,-1.8684,-1.868,-1.8677,-1.8717,-1.8722,-1.8727,-1.8826,0,0,-1.8741,-1.8744,0,0,0,0,0,0,0,0,-1.8628,-1.8636,-1.869,-1.8689,-1.8686,-1.8712,-1.8721,-1.8779,-1.8688,-1.8686,-1.8679,-1.8675,-1.872,-1.8724,-1.8739,-1.8827,-1.8829,-1.8742,-1.8745,-1.8747,-1.8748,0,0,0,0,0,0,0,-1.8625,-1.8634,-1.873,-1.8691,-1.8689,-1.8671,-1.8675,-1.8732,-1.8722,-1.8686,-1.8681,-1.8687,-1.8718,-1.8735,-1.8739,-1.883,-1.8742,-1.8746,-1.8749,-1.8751,-1.9,-1.9003,0,0,0,0,0,0,-1.8625,-1.8632,-1.8729,-1.8731,-1.8648,-1.8677,-1.868,-1.8707,-1.8721,-1.872,-1.869,-1.8683,-1.8728,-1.8734,-1.8741,-1.8857,-1.8747,-1.8751,-1.8754,-1.8996,-1.9,-1.9004,0,0,0,0,0,0,-1.8623,-1.8634,-1.8727,-1.868,-1.8691,-1.8683,-1.8713,-1.871,-1.8726,-1.8724,-1.8722,-1.8709,-1.8726,-1.8734,-1.8805,-1.8857,-1.8753,-1.8758,-1.8992,-1.8997,-1.9002,-1.9091,0,0,0,0,0,0,-1.8619,-1.8634,-1.8672,-1.8682,-1.8694,-1.8792,-1.8716,-1.8713,-1.8735,-1.8727,-1.8741,-1.874,-1.8723,-1.8798,-1.8809,-1.8862,-1.8762,-1.8987,-1.8994,-1.9001,-1.9083,-1.9098,-1.9112,0,0,0,0,0,-1.8614,-1.8695,-1.8674,-1.8686,-1.8741,-1.8795,-1.8802,-1.8781,-1.8739,-1.8777,-1.8775,-1.8739,-1.8849,-1.8806,-1.8818,-1.8873,-1.8983,-1.8992,-1.9,-1.9077,-1.9095,-1.9111,0,0,0,0,0,0,-1.8693,-1.8696,-1.8673,-1.8759,-1.8777,-1.8783,-1.883,-1.8802,-1.8832,-1.8824,-1.8796,-1.88,-1.8877,-1.8881,-1.8833,-1.8969,-1.8909,-1.8921,-1.8963,-1.8981,-1.8995,-1.8993,-1.8766,0,0,0,0,0,-1.872,-1.8764,-1.8764,-1.8841,-1.8851,-1.8839,-1.8862,-1.8844,-1.8862,-1.8869,-1.8872,-1.8891,-1.8929,-1.8955,-1.899,-1.9083,-1.9084,-1.9126,-1.9141,-1.9153,-1.9163,-1.9212,-1.923,-1.9032,-1.9032,-1.9032,0,0,-1.8777,-1.8784,-1.8814,-1.8856,-1.8868,-1.8914,-1.8846,-1.8897,-1.8931,-1.8877,-1.8944,-1.8947,-1.8965,-1.9047,-1.9083,-1.9054,-1.9218,-1.9163,-1.9173,-1.9177,-1.9222,-1.9241,-1.9258,-1.9038,-1.9037,-1.9036,0,0,-1.8904,-1.8914,-1.8979,-1.8992,-1.901,-1.9001,-1.9017,-1.9027,-1.9026,-1.9093,-1.9053,-1.9092,-1.9159,-1.9174,-1.919,-1.932,-1.9289,-1.9332,-1.9408,-1.9456,-1.9472,-1.9485,-1.9532,-1.9549,-1.9342,-1.9343,-1.9343,0,-1.8973,-1.9041,-1.9016,-1.907,-1.9089,-1.9041,-1.9106,-1.912,-1.9149,-1.9163,-1.9129,-1.9211,-1.922,-1.9305,-1.9336,-1.9351,-1.9367,-1.9332,-1.9471,-1.9485,-1.9497,-1.9541,-1.9559,-1.9348,-1.9347,-1.9347,-1.9346,0,-1.9124,-1.9171,-1.9221,-1.925,-1.9275,-1.9334,-1.9317,-1.9346,-1.9325,-1.932,-1.9388,-1.9396,-1.9432,-1.9451,-1.9432,-1.9532,-1.9513,-1.9476,-1.9416,-1.9522,-1.9563,-1.958,-1.9356,-1.9354,-1.9352,-1.9351,0,0,-1.9304,-1.9317,-1.9336,-1.9348,-1.9364,-1.9399,-1.9455,-1.949,-1.9515,-1.9536,-1.9582,-1.9639,-1.9604,-1.9622,-1.9604,-1.9645,-1.9748,-1.9602,-1.9602,-1.963,-1.9859,-1.9888,-1.9908,-1.9726,-1.9729,-1.9732,-1.9858,0,-1.9431,-1.9528,-1.9507,-1.9602,-1.9645,-1.9599,-1.9648,-1.9662,-1.9659,-1.9694,-1.9689,-1.973,-1.9681,-1.9691,-1.973,-1.9727,-1.9794,-1.9718,-1.9769,-1.9771,-1.9767,-1.9929,-1.996,-2.0079,-1.9873,-1.9876,-1.9878,0,-1.9593,-1.9619,-1.9719,-1.9727,-1.9744,-1.9788,-1.9818,-1.9852,-1.9867,-1.9861,-1.9881,-1.9854,-1.9909,-1.9847,-1.9922,-1.9871,-1.989,-1.9891,-1.9895,-1.99,-1.9832,-1.9939,-2.0116,-2.0134,-1.9903,-1.9901,-1.9899,0,-1.9715,-1.9775,-1.9843,-1.9854,-1.9865,-1.9897,-1.9903,-1.9914,-1.9936,-1.9961,-1.9975,-2.0006,-2.0024,-2.0048,-2.003,-1.9987,-2.0108,-2.0045,-2.0105,-2.0105,-2.0134,-2.0132,-2.0317,-2.0145,-2.0145,-2.0144,-2.0144,0,-1.9859,-1.9923,-1.9897,-1.9939,-2.0008,-1.9981,-2.005,-2.005,-2.0061,-2.0101,-2.0063,-2.0101,-2.0074,-2.0111,-2.0097,-2.0161,-2.0169,-2.0165,-2.0161,-2.017,-2.017,-2.0183,-2.0174,-2.0149,-2.0148,-2.0147,-2.0146,0,-2.0008,-1.9994,-2.0064,-2.0068,-2.007,-2.0121,-2.0123,-2.0161,-2.0154,-2.0205,-2.0216,-2.0204,-2.0244,-2.0228,-2.0271,-2.0261,-2.0344,-2.0328,-2.0339,-2.0335,-2.0396,-2.0391,-2.0596,-2.0621,-2.0432,-2.0434,-2.0436,0,-2.0102,-2.0149,-2.0157,-2.0182,-2.019,-2.023,-2.0251,-2.0226,-2.025,-2.027,-2.0306,-2.0342,-2.0371,-2.0437,-2.0433,-2.0465,-2.045,-2.052,-2.0455,-2.0461,-2.0452,-2.045,-2.0454,-2.0533,-2.0535,-2.0537,-2.0539,0,-2.027,-2.026,-2.0293,-2.0323,-2.035,-2.0373,-2.0392,-2.0414,-2.0389,-2.0418,-2.0459,-2.0481,-2.0524,-2.0561,-2.0589,-2.0594,-2.0563,-2.0559,-2.0574,-2.0584,-2.0588,-2.0587,-2.0375,-2.0555,-2.0553,-2.0552,-2.0551,-2.055,-2.0395,-2.0434,-2.0446,-2.0483,-2.0495,-2.0513,-2.0549,-2.0545,-2.0579,-2.0612,-2.0594,-2.0642,-2.0654,-2.0688,-2.0698,-2.0734,-2.0707,-2.0729,-2.0735,-2.0741,-2.075,-2.0582,-2.0739,-2.0738,-2.0738,-2.0737,-2.0737,0,-2.0562,-2.0566,-2.0601,-2.0628,-2.0657,-2.0624,-2.0643,-2.0669,-2.0711,-2.0725,-2.0753,-2.08,-2.0835,-2.0832,-2.0864,-2.0893,-2.088,-2.0903,-2.0901,-2.0902,-2.0772,-2.0755,-2.0913,-2.0913,-2.0913,-2.0913,-2.0913,-2.0913,-2.0652,-2.0717,-2.0708,-2.0778,-2.0781,-2.0827,-2.0841,-2.0857,-2.0868,-2.0921,-2.095,-2.0948,-2.0955,-2.0987,-2.1017,-2.1015,-2.1029,-2.1058,-2.1051,-2.0929,-2.0912,-2.0895,-2.0879,-2.1061,-2.1061,-2.1178,-2.1179,-2.118]},{"header":{"parameterUnit":"m.s-1","parameterCategory":1,"la1":30.2991,"la2":30.254,"lo1":-89.0895,"lo2":-89.0444,"dy":0.0017,"dx":0.0017,"nx":28,"ny":28,"refTime":"2023-10-07T09:00:00:Z","depth":0,"parameterNumber":3,"parameterNumberName":"V-component_of_WINDS"},"data":[0,0,0,0,0,0,0,0,0,0,0,0,0,0,0,0,0,0,0,0,0,0,0,0,0,0,0,0,0,0,0,0,0,0,0,0,0,0,0,0,0,0,0,0,0,0,0,0,0,0,0,0,0,0,0,0,0,0,-7.3731,-7.3732,0,-7.3845,-7.3846,-7.3847,-7.3727,-7.3722,-7.3717,-7.3713,-7.3823,-7.383,-7.3837,0,0,0,0,0,0,0,0,0,0,0,0,0,-7.3403,-7.3409,-7.3731,-7.3732,-7.3734,-7.3844,-7.3846,-7.3848,-7.3727,-7.3722,-7.3716,-7.3711,-7.382,-7.3829,-7.3838,0,0,0,0,0,0,0,0,0,0,0,0,0,-7.3534,-7.3411,-7.3731,-7.3687,-7.3685,-7.3844,-7.3846,-7.3848,-7.3729,-7.3722,-7.3715,-7.3708,-7.3818,-7.3828,-7.3839,-7.4045,0,0,-7.3872,-7.3877,0,0,0,0,0,0,0,0,-7.3526,-7.3546,-7.3692,-7.3691,-7.3688,-7.3764,-7.377,-7.3914,-7.373,-7.3712,-7.3713,-7.3705,-7.3809,-7.382,-7.3856,-7.405,-7.4055,-7.3873,-7.388,-7.3884,-7.3887,0,0,0,0,0,0,0,-7.3517,-7.354,-7.3776,-7.3695,-7.3692,-7.366,-7.3671,-7.3797,-7.3797,-7.3713,-7.3704,-7.372,-7.3806,-7.3846,-7.3858,-7.4056,-7.3873,-7.3882,-7.3889,-7.3893,-7.4423,-7.443,0,0,0,0,0,0,-7.3514,-7.3533,-7.3772,-7.3779,-7.3589,-7.3671,-7.3684,-7.3747,-7.3796,-7.3797,-7.3726,-7.3714,-7.3831,-7.3845,-7.3861,-7.4105,-7.3884,-7.3894,-7.3901,-7.4415,-7.4424,-7.4433,0,0,0,0,0,0,-7.3508,-7.3537,-7.3767,-7.3654,-7.3681,-7.3684,-7.3756,-7.3753,-7.3793,-7.3806,-7.3804,-7.3767,-7.3826,-7.3846,-7.4,-7.4107,-7.3899,-7.3909,-7.4406,-7.4418,-7.4429,-7.4594,0,0,0,0,0,0,-7.3499,-7.3535,-7.3615,-7.3657,-7.3688,-7.3907,-7.3763,-7.376,-7.3812,-7.3798,-7.3844,-7.3845,-7.3822,-7.3985,-7.4011,-7.4118,-7.3918,-7.4397,-7.4412,-7.4425,-7.4579,-7.461,-7.4636,0,0,0,0,0,-7.3487,-7.3656,-7.362,-7.3649,-7.3788,-7.3914,-7.3931,-7.3903,-7.3822,-7.3901,-7.3909,-7.3843,-7.4091,-7.4001,-7.403,-7.4142,-7.439,-7.4407,-7.4424,-7.4566,-7.4604,-7.4635,0,0,0,0,0,0,-7.3624,-7.3661,-7.3621,-7.3809,-7.386,-7.3893,-7.3992,-7.3944,-7.4017,-7.4,-7.396,-7.3972,-7.4135,-7.4154,-7.4053,-7.4343,-7.4227,-7.425,-7.4325,-7.4361,-7.4389,-7.4381,-7.3927,0,0,0,0,0,-7.3677,-7.3778,-7.3803,-7.3966,-7.3994,-7.399,-7.4043,-7.4017,-7.4067,-7.4087,-7.4107,-7.4156,-7.4244,-7.4303,-7.4386,-7.4581,-7.4588,-7.4672,-7.47,-7.4724,-7.4744,-7.4848,-7.4885,-7.4488,-7.4488,-7.4488,0,0,-7.3785,-7.3818,-7.3884,-7.3995,-7.4031,-7.4135,-7.4008,-7.4123,-7.4199,-7.4104,-7.4251,-7.4267,-7.4319,-7.4495,-7.4573,-7.4515,-7.4855,-7.4745,-7.4764,-7.4772,-7.4869,-7.4906,-7.494,-7.45,-7.4498,-7.4496,0,0,-7.4036,-7.4072,-7.4211,-7.4251,-7.4308,-7.4304,-7.4337,-7.4379,-7.4386,-7.4534,-7.4465,-7.4553,-7.4707,-7.4747,-7.4787,-7.5053,-7.4994,-7.508,-7.5228,-7.5329,-7.5361,-7.5388,-7.5482,-7.5516,-7.5101,-7.5101,-7.5101,0,-7.4164,-7.432,-7.4289,-7.4409,-7.4459,-7.438,-7.452,-7.4558,-7.4639,-7.4674,-7.4608,-7.48,-7.4829,-7.5012,-7.5077,-7.5113,-7.5148,-7.5075,-7.5359,-7.5386,-7.5411,-7.55,-7.5536,-7.5111,-7.511,-7.5109,-7.5108,0,-7.4472,-7.4581,-7.4687,-7.4769,-7.483,-7.496,-7.4946,-7.5012,-7.4981,-7.4983,-7.5133,-7.5165,-7.5253,-7.5294,-7.5264,-7.5473,-7.5435,-7.5366,-7.5248,-7.546,-7.5543,-7.5577,-7.5126,-7.5122,-7.5119,-7.5116,0,0,-7.4813,-7.4877,-7.4916,-7.4952,-7.5009,-7.5091,-7.5216,-7.5303,-7.536,-7.5418,-7.552,-7.5652,-7.5588,-7.5633,-7.5607,-7.5696,-7.5903,-7.5614,-7.5615,-7.5666,-7.6134,-7.6186,-7.6226,-7.5865,-7.5871,-7.5876,-7.6129,0,-7.5065,-7.5285,-7.526,-7.5468,-7.5567,-7.5493,-7.5601,-7.5647,-7.5652,-7.5734,-7.5738,-7.5833,-7.5741,-7.5768,-7.5853,-7.586,-7.5996,-7.5841,-7.5958,-7.5962,-7.5947,-7.627,-7.6325,-7.6563,-7.6161,-7.6167,-7.6171,0,-7.5388,-7.546,-7.5679,-7.5721,-7.5761,-7.5859,-7.5937,-7.6018,-7.6067,-7.6064,-7.6116,-7.6073,-7.6195,-7.6076,-7.6243,-7.6139,-7.6184,-7.6195,-7.6203,-7.6213,-7.6079,-7.6287,-7.6638,-7.6673,-7.6222,-7.6218,-7.6214,0,-7.5614,-7.5765,-7.5915,-7.5948,-7.6001,-7.6071,-7.6096,-7.6138,-7.6192,-7.6259,-7.6293,-7.6373,-7.6416,-7.6478,-7.6457,-7.6372,-7.6628,-7.6507,-7.6627,-7.6628,-7.6684,-7.6681,-7.7047,-7.6715,-7.6715,-7.6714,-7.6713,0,-7.5898,-7.6035,-7.6018,-7.611,-7.626,-7.6229,-7.6378,-7.6393,-7.6431,-7.6523,-7.6463,-7.655,-7.6518,-7.6602,-7.6586,-7.6727,-7.6747,-7.6746,-7.674,-7.6752,-7.6752,-7.6781,-7.6764,-7.6724,-7.6722,-7.672,-7.6718,0,-7.6176,-7.617,-7.6329,-7.6366,-7.6378,-7.6487,-7.6517,-7.6603,-7.6603,-7.672,-7.6745,-7.6745,-7.6842,-7.6827,-7.6934,-7.6923,-7.7098,-7.7072,-7.7082,-7.7076,-7.7197,-7.7186,-7.7594,-7.7645,-7.7281,-7.7285,-7.7288,0,-7.6357,-7.6461,-7.6509,-7.6568,-7.6598,-7.6693,-7.6748,-7.6721,-7.678,-7.6844,-7.6922,-7.7013,-7.7085,-7.7242,-7.7249,-7.733,-7.7305,-7.7443,-7.7317,-7.7325,-7.7306,-7.73,-7.731,-7.7467,-7.7472,-7.7475,-7.7478,0,-7.6679,-7.6671,-7.6754,-7.6837,-7.6905,-7.6968,-7.7025,-7.7075,-7.7053,-7.7122,-7.7222,-7.7278,-7.7387,-7.7478,-7.7554,-7.7575,-7.7523,-7.7517,-7.7549,-7.7562,-7.7563,-7.7564,-7.7149,-7.7508,-7.7505,-7.7503,-7.7501,-7.75,-7.6914,-7.7002,-7.705,-7.7144,-7.7185,-7.7239,-7.7321,-7.7332,-7.7415,-7.7504,-7.7482,-7.7594,-7.7638,-7.7735,-7.7765,-7.7851,-7.78,-7.7846,-7.7858,-7.787,-7.7884,-7.7551,-7.7864,-7.7863,-7.7862,-7.7862,-7.7861,0,-7.7232,-7.726,-7.7347,-7.7429,-7.7503,-7.7449,-7.7508,-7.7573,-7.7673,-7.772,-7.7792,-7.7905,-7.7993,-7.8008,-7.8091,-7.8156,-7.8134,-7.8179,-7.8173,-7.8179,-7.7925,-7.7889,-7.8195,-7.8195,-7.8195,-7.8195,-7.8195,-7.8195,-7.7406,-7.7553,-7.7551,-7.7716,-7.7741,-7.7852,-7.7891,-7.794,-7.7977,-7.8107,-7.8181,-7.8191,-7.8224,-7.8309,-7.8386,-7.8388,-7.8421,-7.8475,-7.8468,-7.823,-7.8197,-7.8165,-7.8131,-7.8483,-7.8483,-7.8714,-7.8716,-7.8718]}]]